Regional Weather Roundup
Issued by NWS

Home | Current Version | Previous Version | Graphics & Text | Print | Product List | Glossary On
Versions: 1 2 3 4 5 6 7 8 9 10 11 12 13 14 15 16 17 18 19 20 21 22 23 24 25 26 27
000
ASUS45 KBOU 180506
RWRCO

WEATHER ROUNDUP FOR COLORADO
NATIONAL WEATHER SERVICE DENVER/BOULDER CO
1100 PM MDT THU APR 17 2014

NOTE: "FAIR" INDICATES FEW OR NO CLOUDS BELOW 12000 FEET WITH NO
SIGNIFICANT WEATHER AND/OR OBSTRUCTIONS TO VISIBILITY.

COZ001>005-013-030-031-180600-
...NORTHWEST COLORADO...

CITY           SKY/WX    TMP DP  RH WIND       PRES   REMARKS
CRAIG          CLEAR     38  26  62 CALM      30.06R
HAYDEN         CLEAR     45  23  42 E3        30.09S
MEEKER         CLEAR     39  28  64 E5        30.08R
MOUNT WERNER   CLEAR     37  12  35 SW15      30.23S
STEAMBOAT SPGS CLEAR     43  21  41 E7        30.08S
WALDEN         PTCLDY    36  23  60 E7        30.11S
$$

COZ006>008-011-180600-
...WEST CENTRAL VALLEYS...

CITY           SKY/WX    TMP DP  RH WIND       PRES   REMARKS
GRAND JUNCTION PTCLDY    50  26  39 E6        30.02S
MONTROSE       PTCLDY    47  28  47 SE8       30.10R
EAGLE          CLEAR     41  27  56 E8        30.12S
RIFLE          CLEAR     45  29  53 CALM      30.07R
DELTA          PTCLDY    49  31  48 CALM      30.06R
NUCLA            N/A     50  23  34 E8        30.13S
$$

COZ017>023-064>068-180600-
...SOUTHWEST COLORADO...

CITY           SKY/WX    TMP DP  RH WIND       PRES   REMARKS
DURANGO        CLEAR     43  18  36 N3        30.16R
CORTEZ         CLEAR     43  24  47 CALM      30.12R
PAGOSA SPRINGS CLEAR     41  17  38 NE5       30.21S
TELLURIDE      CLEAR     43  21  42 SE5       30.24S
WOLF CREEK PAS CLEAR     30  14  51 SW25G33   30.34S WCI  16
$$

COZ009-010-012-014-032>034-037-058>063-180600-
...CENTRAL COLORADO...

CITY           SKY/WX    TMP DP  RH WIND       PRES   REMARKS
ASPEN          CLEAR     38  22  52 S5        30.14S
BUENA VISTA    CLEAR     44  20  38 SW5       30.15R
COPPER MTN     CLEAR     34  16  47 SW14G23   30.28F WCI  24
BERTHOUD PASS  FAIR      27  18  69 W17G36    30.26S WCI  14
COTTONWOOD PAS CLEAR     45  14  29 W14G24    30.21R
GUNNISON       CLEAR     39  19  45 N5        30.20S
KREMMLING      PTCLDY    43  19  39 CALM      30.12R
LEADVILLE      CLEAR     29  16  58 NE8       30.20F WCI  21
MONARCH PASS   CLEAR     30  16  55 W29       30.39S WCI  15
SALIDA         CLEAR     44  33  64 SE7       30.21R
SUNLIGHT       CLEAR     32  23  69 CALM      30.26S
WILKERSON PASS PTCLDY    32  18  55 SW10G18   30.26F WCI  24
$$

COZ069>075-180600-
...SAN LUIS VALLEY/SANGRE DE CRISTO MOUNTAINS...

CITY           SKY/WX    TMP DP  RH WIND       PRES   REMARKS
ALAMOSA        CLEAR     41  28  60 S8        30.16R
LA VETA PASS   PTCLDY    37  19  48 SW12G23   30.21S
SAGUACHE       NOT AVBL
$$

COZ035-036-038>040-180600-
...NORTHERN COLORADO FRONT RANGE...

CITY           SKY/WX    TMP DP  RH WIND       PRES   REMARKS
DENVER INTL AP CLOUDY    48  32  53 S20       30.00F
DMNS CITY PARK   N/A     51  31  46 SW7       30.00S
AURORA         PTCLDY    48  32  53 S29       30.00F
FRONT RANGE AP NOT AVBL
ERIE MUNI ARPT PTCLDY    44  35  70 CALM      30.00S
BOULDER MUN AP PTCLDY    50  30  46 S3        29.99S
CENTENNIAL     PTCLDY    47  31  53 S15       30.02F
BROOMFIELD     NOT AVBL
FORT COLLINS   PTCLDY    46  28  49 SE5       30.00S
LONGMONT       PTCLDY    44  32  62 CALM      30.00F
$$

COZ041-046-047-076>085-087-088-180600-
...PIKES PEAK/PALMER DIVIDE AND SOUTHERN FOOTHILLS...

CITY           SKY/WX    TMP DP  RH WIND       PRES   REMARKS
COLO. SPRINGS  MOCLDY    42  34  73 E7        30.11F
A. F. ACADEMY  MOCLDY    40  33  74 S8        30.12S
ELLICOTT       NOT AVBL
FALCON         MOCLDY    36  32  88 CALM      30.13F
FORT CARSON    MOCLDY    42  34  73 E3        30.09F
LIMON          CLEAR     37  34  89 SE10      30.11F
MONUMENT HILL  MOCLDY    37  32  81 S16       30.09S
TRINIDAD       PTCLDY    48  34  58 W3        30.09F
$$

COZ042>045-048>051-090-091-180600-
...NORTHEAST COLORADO...

CITY           SKY/WX    TMP DP  RH WIND       PRES   REMARKS
GREELEY ARPT   CLEAR     48  30  49 S12       29.99F
AKRON          CLEAR     44  36  73 S21G32    30.04F
BURLINGTON     CLEAR     40  36  86 S22       30.12F
WRAY           CLEAR     45  40  82 S16       30.09F
STERLING       CLEAR     50  39  66 S14       30.02S
HOLYOKE        CLEAR     45  37  76 S15       30.07F
FORT MORGAN    CLEAR     46  35  65 S14       30.03S
$$

COZ086-089-092>099-180600-
...SOUTHEAST COLORADO...

CITY           SKY/WX    TMP DP  RH WIND       PRES   REMARKS
PUEBLO         MOCLDY    47  37  68 NE10      30.06F
LA JUNTA       CLEAR     46  36  68 SE7       30.09S
LAMAR          CLEAR     43  34  70 S22G29    30.11F
SPRINGFIELD      N/A     36  32  85 S13       30.17F
$$



USA.gov is the U.S. government's official web portal to all federal, state and local government web resources and services.